This is the latest recevied weather packets stored in our database for station/object DL9GJ-6. If no packets are shown the sender has not sent any weather packets the latest 10 day(s).
| Time | Temp. | Humidity | Pressure | Rain* | Wind** | Luminosity | Snow |
|---|---|---|---|---|---|---|---|
| 1777875970 | 13.89° C | 77% | 1013.6 hPa | 0 mm | - | 429 W/m² | - |
| 1777875623 | 13.33° C | 79% | 1013.7 hPa | 0 mm | - | 374 W/m² | - |
| 1777875613 | 13.33° C | 79% | 1013.7 hPa | 0 mm | - | 374 W/m² | - |
| 1777875263 | 12.22° C | 80% | 1013.7 hPa | 0 mm | - | 297 W/m² | - |
| 1777874904 | 11.67° C | 81% | 1013.7 hPa | 0 mm | - | 286 W/m² | - |
| 1777874891 | 11.67° C | 81% | 1013.7 hPa | 0 mm | - | 286 W/m² | - |
| 1777874543 | 11.67° C | 82% | 1013.8 hPa | 0 mm | - | 235 W/m² | - |
| 1777874183 | 11.11° C | 84% | 1013.9 hPa | 0 mm | - | 272 W/m² | - |
| 1777874174 | 11.11° C | 84% | 1013.9 hPa | 0 mm | - | 272 W/m² | - |
| 1777873823 | 10.56° C | 85% | 1013.9 hPa | 0 mm | - | 271 W/m² | - |
| 1777873463 | 9.44° C | 86% | 1013.9 hPa | 0 mm | - | 195 W/m² | - |
| 1777873104 | 9.44° C | 86% | 1013.9 hPa | 0 mm | - | 172 W/m² | - |
| 1777873090 | 9.44° C | 86% | 1013.9 hPa | 0 mm | - | 172 W/m² | - |
| 1777872744 | 8.89° C | 86% | 1013.9 hPa | 0 mm | - | 153 W/m² | - |
| 1777872733 | 8.89° C | 86% | 1013.9 hPa | 0 mm | - | 153 W/m² | - |
| 1777872383 | 8.89° C | 86% | 1013.9 hPa | 0 mm | - | 83 W/m² | - |
| 1777872371 | 8.89° C | 86% | 1013.9 hPa | 0 mm | - | 83 W/m² | - |
| 1777872023 | 8.33° C | 86% | 1013.9 hPa | 0 mm | - | 85 W/m² | - |
| 1777871663 | 8.33° C | 87% | 1013.9 hPa | 0 mm | - | 54 W/m² | - |
| 1777871303 | 8.33° C | 87% | 1013.8 hPa | 0 mm | - | 50 W/m² | - |
| 1777871291 | 8.33° C | 87% | 1013.8 hPa | 0 mm | - | 50 W/m² | - |
| 1777870943 | 7.78° C | 86% | 1013.8 hPa | 0 mm | - | 48 W/m² | - |
| 1777870932 | 7.78° C | 86% | 1013.8 hPa | 0 mm | - | 48 W/m² | - |
| 1777870583 | 7.78° C | 86% | 1013.9 hPa | 0 mm | - | 44 W/m² | - |
| 1777870573 | 7.78° C | 86% | 1013.9 hPa | 0 mm | - | 44 W/m² | - |
* Rain latest hour (hover to see other rain measurements)
** Current wind speed in m/s (hover to see current wind gust speed)